Regional Weather Roundup
Issued by NWS

Home | Current Version | Previous Version | Text Only | Print | Product List | Glossary On
Versions: 1 2 3 4 5 6 7 8 9 10 11 12 13 14 15 16 17 18 19 20 21 22 23 24 25 26 27 28 29 30 31 32 33 34 35 36 37 38 39 40 41 42 43 44 45 46 47 48 49 50
000
ASUS43 KTOP 020008
RWRKS

WEATHER ROUNDUP FOR KANSAS
NATIONAL WEATHER SERVICE GOODLAND KS
600 PM CST SUN MAR 01 2015

NOTE:  "FAIR" INDICATES FEW OR NO CLOUDS BELOW 12,000 FEET WITH NO
SIGNIFICANT WEATHER AND/OR OBSTRUCTIONS TO VISIBILITY.

KSZ001>006-013>018-027>032-041>047-020100-
NORTHWEST KANSAS

CITY           SKY/WX    TMP DP  RH WIND       PRES   REMARKS
GOODLAND       MOCLDY    32  17  54 NE7       30.27S
6HR MIN TEMP:  27; 6HR MAX TEMP:  34;

HAYS           MOCLDY    32  14  47 SW5       30.36R
HILL CITY      MOCLDY    35  20  54 S5        30.34S
6HR MIN TEMP:  29; 6HR MAX TEMP:  37;

RUSSELL        MOCLDY    32  20  61 N3        30.35R
6HR MIN TEMP:  29; 6HR MAX TEMP:  36;

$$

KSZ061>065-074>080-084>089-020100-
SOUTHWEST KANSAS

CITY           SKY/WX    TMP DP  RH WIND       PRES   REMARKS
DODGE CITY     CLOUDY    30  20  66 N7        30.33R
6HR MIN TEMP:  27; 6HR MAX TEMP:  31;

ELKHART          N/A     29  21  72 N5          N/A
GARDEN CITY    CLOUDY    28  20  71 N9        30.31S
6HR MIN TEMP:  24; 6HR MAX TEMP:  29;

GREAT BEND     MOCLDY    30  19  64 NW7       30.38R
LIBERAL        CLOUDY    28  21  74 N8        30.34R
PRATT          CLOUDY    32  23  69 N6        30.38R
$$

KSZ066>073-081>083-090>101-020100-
SOUTHEAST KANSAS

CITY           SKY/WX    TMP DP  RH WIND       PRES   REMARKS
CHANUTE        CLEAR     31  22  69 N6        30.41R
6HR MIN TEMP:  29; 6HR MAX TEMP:  34;

COFFEYVILLE    CLOUDY    31  23  72 N7        30.41S
6HR MIN TEMP:  30; 6HR MAX TEMP:  35;

HUTCHINSON     MOCLDY    33  21  61 N7        30.37R
6HR MIN TEMP:  29; 6HR MAX TEMP:  36;

MEDICINE LODGE   N/A     32  22  66 NE7       30.37R
NEWTON         CLEAR     28  18  64 N5        30.39S
PARSONS        PTCLDY    32  22  66 N7        30.41S
6HR MIN TEMP:  30; 6HR MAX TEMP:  34;

WICHITA INTL   PTCLDY    31  19  61 N9        30.38S
6HR MIN TEMP:  27; 6HR MAX TEMP:  32;

WICHITA JABRA  CLEAR     30  20  66 N7        30.38R
6HR MIN TEMP:  27; 6HR MAX TEMP:  31;

WICHITA MCCONL CLEAR     30  20  68 N8        30.38R
WINFIELD       PTCLDY    30  22  72 N6        30.40R
6HR MIN TEMP:  30; 6HR MAX TEMP:  32;

$$

KSZ007>012-019>026-033>040-048>060-102>105-020100-
NORTHEAST KANSAS

CITY           SKY/WX    TMP DP  RH WIND       PRES   REMARKS
CONCORDIA      MOCLDY    33  20  58 S5        30.36S
6HR MIN TEMP:  29; 6HR MAX TEMP:  37;

EMPORIA        CLEAR     31  21  66 N5        30.38S
6HR MIN TEMP:  27; 6HR MAX TEMP:  34;

LAWRENCE       PTCLDY    32  21  64 N6        30.40S
6HR MIN TEMP:  30; 6HR MAX TEMP:  36;

MANHATTAN      PTCLDY    34  20  56 CALM      30.40R
6HR MIN TEMP:  31; 6HR MAX TEMP:  36;

MARYSVILLE     CLOUDY    34  21  60 CALM      30.37R
OLATHE IND     PTCLDY    31  22  69 NW7       30.39R
6HR MIN TEMP:  28; 6HR MAX TEMP:  33; 6HR PCP: TRACE;

OLATHE EXE     PTCLDY    32  21  64 N8        30.38R
6HR MIN TEMP:  28; 6HR MAX TEMP:  34;

SALINA         CLEAR     34  20  56 N7        30.40R
6HR MIN TEMP:  30; 6HR MAX TEMP:  37;

TOPEKA BILLARD PTCLDY    33  21  61 NW7       30.41R
6HR MIN TEMP:  29; 6HR MAX TEMP:  35;

TOPEKA FORBES  CLEAR     32  21  64 NW6       30.39S
6HR MIN TEMP:  31; 6HR MAX TEMP:  35;

$$



USA.gov is the U.S. government's official web portal to all federal, state and local government web resources and services.